CDT,Max TemperatureF,Mean TemperatureF,Min TemperatureF,Max Dew PointF,MeanDew PointF,Min DewpointF,Max Humidity, Mean Humidity, Min Humidity, Max Sea Level PressureIn, Mean Sea Level PressureIn, Min Sea Level PressureIn, Max VisibilityMiles, Mean VisibilityMiles, Min VisibilityMiles, Max Wind SpeedMPH, Mean Wind SpeedMPH, Max Gust SpeedMPH,PrecipitationIn, CloudCover, Events, WindDirDegrees
2013-8-1,78,66,54,55,51,47,89,63,36,29.99,29.95,29.88,10,10,10,20,8,24,0.00,1,,303
2013-8-2,78,67,56,57,52,47,93,64,35,30.01,29.89,29.84,10,10,10,15,6,26,0.00,2,,324
2013-8-3,75,64,53,53,49,45,93,64,35,30.18,30.09,30.01,10,10,10,15,7,20,0.00,2,,325
2013-8-4,74,62,50,52,48,44,89,62,35,30.25,30.19,30.10,10,10,10,8,3,10,0.00,1,,265
2013-8-5,72,63,54,63,58,51,93,77,61,30.09,29.94,29.84,10,10,10,16,7,20,T,7,Rain,187
2013-8-6,81,71,60,63,59,51,93,65,36,29.85,29.81,29.73,10,9,2,26,8,40,0.23,6,Rain-Thunderstorm,230
2013-8-7,76,64,51,61,56,46,97,69,41,30.04,29.83,29.75,10,10,7,14,6,18,0.01,5,Rain-Thunderstorm,330
2013-8-8,77,62,46,54,49,45,96,66,36,30.07,30.03,29.99,10,10,10,10,3,15,0.00,1,,211
2013-8-9,76,67,57,57,51,46,93,65,36,30.09,30.01,29.96,10,10,10,18,7,23,0.00,4,,320
2013-8-10,73,64,55,54,51,45,86,63,40,30.17,30.14,30.09,10,10,10,10,4,14,0.00,6,,299
2013-8-11,74,64,53,60,56,51,93,73,53,30.14,30.08,30.03,10,10,10,8,3,10,0.00,2,,183
2013-8-12,80,67,53,61,55,45,100,68,36,30.06,29.99,29.94,10,6,0,16,6,22,0.01,4,Fog,340
2013-8-13,70,59,48,46,44,41,93,65,36,30.22,30.14,30.07,10,10,10,16,6,22,0.00,2,,348
2013-8-14,74,58,42,48,44,40,100,65,29,30.25,30.19,30.13,10,10,10,14,4,18,0.00,1,,316
2013-8-15,80,64,47,53,48,45,93,62,31,30.15,30.12,30.08,10,10,10,15,5,26,0.00,3,,310
2013-8-16,81,67,52,57,52,49,93,64,35,30.19,30.17,30.14,10,10,10,10,3,14,0.00,1,,294
2013-8-17,82,68,54,56,53,48,93,63,33,30.25,30.20,30.16,10,10,8,13,3,18,0.00,1,,227
2013-8-18,81,67,53,58,54,52,100,68,36,30.21,30.14,30.07,10,10,7,14,5,18,0.00,0,,190
2013-8-19,82,69,56,63,59,55,93,71,48,30.07,30.02,29.98,10,10,7,16,7,23,0.00,1,,221
2013-8-20,87,74,61,65,63,60,100,74,48,30.03,29.98,29.94,10,9,4,18,9,24,0.00,2,,189
2013-8-21,90,77,63,70,66,63,100,77,53,30.04,29.94,29.85,10,8,0,41,8,52,1.34,3,Fog-Rain-Thunderstorm,227
2013-8-22,83,72,61,63,58,50,100,67,33,30.14,30.08,30.01,10,8,2,9,3,18,0.00,1,,340
2013-8-23,81,69,56,59,55,51,93,68,42,30.22,30.17,30.13,10,10,10,13,7,16,0.00,1,,133
2013-8-24,84,71,57,66,59,51,93,66,39,30.24,30.17,30.09,10,10,10,18,10,23,0.00,2,,155
2013-8-25,92,83,73,72,69,65,79,64,49,30.10,30.05,29.99,10,10,9,20,12,25,0.00,0,,213
2013-8-26,88,78,68,76,70,63,94,77,59,30.12,30.02,29.92,10,7,1,17,6,24,1.69,4,Rain-Thunderstorm,183
2013-8-27,90,81,72,75,74,72,100,78,56,29.95,29.87,29.80,10,6,3,12,5,15,0.06,4,Rain-Thunderstorm,101
2013-8-28,85,77,69,71,67,64,100,76,51,30.06,30.00,29.90,10,9,3,9,4,12,T,3,,78
2013-8-29,86,77,67,70,67,65,97,74,51,30.09,30.01,29.91,10,9,4,18,6,26,0.19,4,Rain-Thunderstorm,157
2013-8-30,82,76,70,73,67,59,100,78,55,29.93,29.87,29.82,10,9,5,16,7,22,T,4,Rain,19
2013-8-31,80,69,58,64,61,57,97,74,51,29.93,29.87,29.79,10,10,10,9,4,13,0.00,0,,155